STARLINK-1114, 44927

Orbit data source: Space-Track

STARLINK-1114, 44927 is a payload satellite owned by SpaceX/Seattle (US) in LEO that was launched on Tue, 07 Jan 2020 UTC via an FALCON 9 launch vehicle from the Air Force Eastern Test Range (AFETR). Payload-class satellites include a variety of spacecraft equipped with specific instruments for various scientific and technological missions. These include communications satellites like Starlink; space stations such as the ISS; scientific satellites like the Hubble; Earth observation satellites from companies like Planet Labs, Umbra, and HawkEye 360; GPS; miniature CubeSats for education and research; and military/defense satellites.

Loading next visibility...
Identifier
44927, 2020-001P
Orbit
LEO
Country
Flag of USUS
Related business
Manufacturer
SpaceX/Seattle
Mission
Partially operational Commercial Communications
Bus & Motor
STARLINK, Unknown motor
Mass
260 kg wet, ~248 kg dry
Launch date (UTC)
2020-01-07 (6 years ago)
Launch vehicle
FALCON 9
Launch site
Air Force Eastern Test Range (AFETR)
Object type
Payload
Rocket body
Debris
Shape & HBR
Box + 1 Pan, 10.1 m
Radar Cross Section
13.562 m², Large (>1 m²)

Expand to show TLE details & history
Last TLE update: 9 hours ago

TLE from 9 hours ago
0 STARLINK-1114
1 44927U 20001P   26119.52377731  .00097213  00000-0  12127-2 0  9990
2 44927  53.0437  83.6498 0003648   8.0365 352.0705 15.59116727348002
Epoch: 2026-04-29T12:34Z
TLE epoch observation values (Epoch: 2026-04-29T12:34:14.359Z)
Latitude
0.00001°
Longitude
37.60647°
Altitude
388.665 km
Speed
7.68 km/s
True Right ascension
05h 34m 35s
True Declination
0° 00' 00"
Sunlit
Object was in daylight at epoch
Visualization orbit readout
Latitude
Unknown
Longitude
Unknown
Altitude
Unknown
Speed
Unknown
Apparent Right ascension
Unknown
Apparent Declination
Unknown
Sunlit
N/A
Visualization observer readout
Local Sidereal Time
04:39:17
Azimuth
Unknown
Elevation
Unknown
Doppler factor
Unknown
Orbital elements
Apogee altitude
392.96 km
Perigee altitude
388.022 km
Semi-major axis
6,768.628 km
Eccentricity
0.00036
Inclination
53.0437°
RAAN
83.6498°
Arg. of periapsis
8.0365°
True anomaly
352.06473°
Mean anomaly
352.0705°
Eccentric anomaly
352.06762°
Mean motion
3.89755 °/min
Orbital period
92.37 mins
BSTAR
0.0012127
Loading maneuver chart data...
Computing Atmospheric mass density...

Documentation

Showing up to 5 results
|